Date String (YYYY-MM-DD hh:mm:ss) UTC,Instrument flags,absolute air pressure of the measurement (hPa),sample flow rate (lpm),inlet stack bypass flow (lpm),air temperature of the measurement (°C),ambient temperature measured by the external sensor (°C),aerosol sample conditioner tube jacket temperature (°C),OPC LED temperature (°C),internal box temperature (°C),relative humidity of the measurement (%),span deviation,mass concentration of particles derived from Lorenz-Mie calculation of OPC scattering (μg/m³),mass concentration of particles derived from Lorenz-Mie calculation of OPC scattering (μg/m³),mass concentration of particles derived from Lorenz-Mie calculation of OPC scattering (μg/m³)
DateTimeUTC,F1_M11,P_M11,Q1_M11,Q2_M11,T1_M11,T2_M11,T3_M11,T4_M11,T5_M11,U1_M11,ZSPAN_M11,X2_M11,X0_M11,X1_M11
2024-06-15 02:00:00,SystemResetWarning,0828.1,5.00,000.00,029.3,027.8,000.0,037.8,030.9,030.9,0000.0,0008.03,0023.41,0006.11
2024-06-15 02:01:00,SystemResetWarning,0828.1,5.00,000.00,029.4,028.1,000.0,037.8,031.0,030.9,0000.0,0008.01,0024.11,0006.07
2024-06-15 02:02:00,SystemResetWarning,0828.1,5.00,000.00,029.4,028.4,000.0,037.8,031.1,031.1,0000.0,0007.93,0023.20,0006.05
2024-06-15 02:03:00,SystemResetWarning,0828.1,5.00,000.00,029.5,028.6,000.0,037.8,031.2,030.8,0000.5,0007.90,0023.19,0006.03
2024-06-15 02:04:00,SystemResetWarning,0828.0,5.00,000.00,029.5,028.8,000.0,037.8,031.3,030.6,0000.6,0007.87,0023.14,0006.03
2024-06-15 02:05:00,SystemResetWarning,0827.9,4.99,000.00,029.6,028.9,000.0,037.8,031.4,030.3,0001.0,0007.85,0023.14,0006.01
2024-06-15 02:06:00,SystemResetWarning,0827.8,4.99,000.00,029.7,029.1,000.0,037.9,031.5,029.7,0000.0,0007.86,0023.54,0006.00
2024-06-15 02:07:00,SystemResetWarning,0827.8,5.00,000.00,029.7,029.2,000.0,037.9,031.5,029.6,0000.8,0007.79,0022.72,0005.99
2024-06-15 02:08:00,SystemResetWarning,0827.8,4.99,000.00,029.8,029.3,000.0,037.9,031.6,029.7,0002.9,0007.79,0021.97,0005.99
2024-06-15 02:09:00,SystemResetWarning,0827.8,5.00,000.00,029.8,029.4,000.0,038.0,031.7,029.8,0001.4,0007.73,0020.41,0005.98
2024-06-15 02:10:00,SystemResetWarning,0827.7,5.00,000.00,029.9,029.5,000.0,038.0,031.7,029.2,0000.6,0007.71,0020.01,0005.99
2024-06-15 02:11:00,SystemResetWarning,0827.7,5.00,000.00,029.9,028.8,000.0,038.1,031.4,028.6,0000.0,0007.60,0019.11,0005.97
2024-06-15 02:12:00,SystemResetWarning,0827.7,5.00,000.00,029.6,026.8,000.0,038.1,030.5,029.4,0000.5,0007.58,0018.59,0005.96
2024-06-15 02:13:00,SystemResetWarning,0827.7,5.01,000.00,029.3,026.5,000.0,038.1,030.3,030.1,0000.5,0007.57,0019.22,0005.97
2024-06-15 02:14:00,SystemResetWarning,0827.7,5.00,000.00,029.3,026.9,000.0,038.0,030.4,030.3,0000.0,0007.58,0018.88,0005.98
2024-06-15 02:15:00,SystemResetWarning,0827.7,4.99,000.00,029.3,027.3,000.0,037.9,030.6,030.0,0000.0,0007.55,0019.32,0005.97
2024-06-15 02:16:00,SystemResetWarning,0827.7,5.00,000.00,029.3,027.7,000.0,037.8,030.8,029.2,0000.0,0007.50,0019.49,0005.97
2024-06-15 02:17:00,SystemResetWarning,0827.6,5.01,000.00,029.4,028.0,000.0,037.8,031.0,028.9,0001.3,0007.43,0018.90,0005.98
2024-06-15 02:18:00,SystemResetWarning,0827.6,4.99,000.00,029.4,028.3,000.0,037.8,031.1,028.6,0001.4,0007.36,0018.03,0005.96
2024-06-15 02:19:00,SystemResetWarning,0827.6,5.00,000.00,029.5,028.5,000.0,037.8,031.2,028.5,0000.4,0007.29,0017.87,0005.95
2024-06-15 02:20:00,SystemResetWarning,0827.5,5.00,000.00,029.5,028.7,000.0,037.8,031.3,029.2,0001.4,0007.30,0017.76,0005.95
2024-06-15 02:21:00,SystemResetWarning,0827.5,5.00,000.00,029.6,028.8,000.0,037.8,031.4,030.1,0001.1,0007.27,0017.87,0005.93
2024-06-15 02:22:00,SystemResetWarning,0827.5,5.00,000.00,029.6,029.0,000.0,037.9,031.4,029.3,0000.5,0007.33,0019.44,0005.97
2024-06-15 02:23:00,SystemResetWarning,0827.5,5.00,000.00,029.7,029.1,000.0,037.9,031.5,028.9,0000.4,0007.32,0019.02,0005.98
2024-06-15 02:24:00,SystemResetWarning,0827.5,5.00,000.00,029.8,029.2,000.0,037.9,031.6,028.3,0000.5,0007.31,0018.77,0005.96
2024-06-15 02:25:00,SystemResetWarning,0827.5,4.99,000.00,029.8,029.3,000.0,038.0,031.7,028.2,0000.0,0007.27,0018.96,0005.94
2024-06-15 02:26:00,SystemResetWarning,0827.6,5.00,000.00,029.9,029.4,000.0,038.0,031.7,028.3,0000.0,0007.24,0018.49,0005.95
2024-06-15 02:27:00,SystemResetWarning,0827.4,5.00,000.00,029.9,029.5,000.0,038.0,031.7,028.2,0000.0,0007.34,0019.57,0005.98
2024-06-15 02:28:00,SystemResetWarning,0827.4,5.01,000.00,030.0,029.5,000.0,038.1,031.8,027.9,0000.0,0007.44,0019.94,0006.00
2024-06-15 02:29:00,SystemResetWarning,0827.4,4.99,000.00,029.9,027.9,000.0,038.2,031.0,028.1,0000.0,0007.50,0020.17,0006.04
2024-06-15 02:30:00,SystemResetWarning,0827.3,5.02,000.00,029.5,026.5,000.0,038.2,030.4,028.6,0000.0,0007.59,0021.30,0006.08
2024-06-15 02:31:00,SystemResetWarning,0827.3,5.01,000.00,029.3,026.7,000.0,038.1,030.3,028.2,0000.0,0007.57,0021.68,0006.10
2024-06-15 02:32:00,SystemResetWarning,0827.2,4.99,000.00,029.3,027.0,000.0,038.0,030.5,028.0,0000.0,0007.61,0021.71,0006.12
2024-06-15 02:33:00,SystemResetWarning,0827.3,5.00,000.00,029.3,027.4,000.0,037.9,030.8,028.1,0000.0,0007.57,0020.57,0006.11
2024-06-15 02:34:00,SystemResetWarning,0827.2,5.00,000.00,029.4,027.8,000.0,037.9,030.9,028.2,0000.0,0007.57,0020.40,0006.12
2024-06-15 02:35:00,SystemResetWarning,0827.2,4.99,000.00,029.4,028.1,000.0,037.9,031.1,027.8,0000.0,0007.56,0019.84,0006.15
2024-06-15 02:36:00,SystemResetWarning,0827.2,4.99,000.00,029.5,028.3,000.0,037.9,031.2,027.7,0000.0,0007.53,0018.99,0006.16
2024-06-15 02:37:00,SystemResetWarning,0827.2,5.01,000.00,029.5,028.6,000.0,037.9,031.3,027.8,0000.0,0007.49,0018.15,0006.14
2024-06-15 02:38:00,SystemResetWarning,0827.2,5.01,000.00,029.6,028.8,000.0,037.9,031.3,027.5,0000.0,0007.35,0016.21,0006.12
2024-06-15 02:39:00,SystemResetWarning,0827.2,5.01,000.00,029.7,028.9,000.0,037.9,031.4,028.3,0000.0,0007.23,0016.39,0006.10
2024-06-15 02:40:00,SystemResetWarning,0827.2,5.00,000.00,029.7,029.0,000.0,037.9,031.5,028.4,0000.0,0007.24,0017.50,0006.09
2024-06-15 02:41:00,SystemResetWarning,0827.2,5.00,000.00,029.8,029.2,000.0,037.9,031.6,029.0,0001.2,0007.19,0016.98,0006.09
2024-06-15 02:42:00,SystemResetWarning,0827.2,5.00,000.00,029.8,029.3,000.0,038.0,031.7,028.6,0002.1,0007.22,0016.87,0006.12
2024-06-15 02:43:00,SystemResetWarning,0827.2,5.00,000.00,029.9,029.4,000.0,038.0,031.7,029.6,0002.1,0007.26,0016.72,0006.15
2024-06-15 02:44:00,SystemResetWarning,0827.2,4.99,000.00,030.0,029.4,000.0,038.0,031.8,031.4,0000.0,0007.35,0016.39,0006.21
2024-06-15 02:45:00,SystemResetWarning,0827.2,5.00,000.00,030.0,029.5,000.0,038.1,031.8,031.0,0000.4,0007.48,0016.25,0006.29
2024-06-15 02:46:00,SystemResetWarning,0827.2,5.00,000.00,030.0,029.6,000.0,038.1,031.9,030.2,0001.8,0007.58,0016.12,0006.36
2024-06-15 02:47:00,SystemResetWarning,0827.2,4.98,000.00,030.0,028.2,000.0,038.2,031.2,030.2,0001.7,0007.73,0017.78,0006.44
2024-06-15 02:48:00,SystemResetWarning,0827.1,5.01,000.00,029.6,026.6,000.0,038.2,030.4,031.0,0002.3,0007.82,0018.18,0006.51
2024-06-15 02:49:00,SystemResetWarning,0827.1,5.02,000.00,029.4,026.5,000.0,038.2,030.3,030.8,0001.8,0007.94,0019.77,0006.57
2024-06-15 02:50:00,SystemResetWarning,0827.1,4.99,000.00,029.3,026.9,000.0,038.0,030.4,030.0,0001.5,0008.06,0019.48,0006.65
2024-06-15 02:51:00,SystemResetWarning,0827.2,5.00,000.00,029.3,027.3,000.0,038.0,030.7,028.8,0001.5,0008.10,0018.89,0006.69
2024-06-15 02:52:00,SystemResetWarning,0827.2,5.01,000.00,029.3,027.7,000.0,037.9,030.9,027.8,0001.2,0008.12,0018.42,0006.69
2024-06-15 02:53:00,SystemResetWarning,0827.2,4.99,000.00,029.4,028.0,000.0,037.9,031.0,027.1,0001.4,0008.09,0018.97,0006.65
2024-06-15 02:54:00,SystemResetWarning,0827.2,5.00,000.00,029.4,028.3,000.0,037.9,031.1,026.3,0001.7,0008.03,0019.24,0006.60
2024-06-15 02:55:00,SystemResetWarning,0827.3,5.00,000.00,029.5,028.5,000.0,037.9,031.2,026.0,0002.0,0007.89,0019.01,0006.54
2024-06-15 02:56:00,SystemResetWarning,0827.3,5.00,000.00,029.6,028.7,000.0,037.9,031.3,025.9,0002.0,0007.67,0018.64,0006.43
2024-06-15 02:57:00,SystemResetWarning,0827.3,5.00,000.00,029.6,028.8,000.0,037.9,031.4,025.7,0002.2,0007.54,0018.31,0006.31
2024-06-15 02:58:00,SystemResetWarning,0827.4,5.00,000.00,029.7,029.0,000.0,037.9,031.4,026.3,0002.3,0007.36,0016.80,0006.21
2024-06-15 02:59:00,SystemResetWarning,0827.4,5.01,000.00,029.7,029.1,000.0,037.9,031.5,026.9,0002.1,0007.22,0016.53,0006.11
